Flag for Canada Weather past 2 weeks in Vancouver, British Columbia, Canada

Now
43 °F

Broken clouds.


Feels Like: 40 °F
Forecast: 37 / 47 °F
Wind: 5 mph from Northwest

Location: Vancouver International Air-Port

Current Time: Jan 31, 2015 at 2:42:33 PM

Latest Report: Jan 31, 2015 at 2:00 PM


Visibility: 12 mi

Pressure: 30.21 "Hg

Humidity: 93%

Dew point: 41 °F

Location of VancouverLocation

Historic Weather in Vancouver — Graph

°F

Vancouver temperature yesterday

Maximum temperature yesterday: 45 °F (at 1:00 PM)
Minimum temperature yesterday: 34 °F (at 4:00 AM)
Average temperature yesterday: 39 °F

Past Weeks' High & Low Weather Summary

 TemperatureHumidityPressure
High57 °F (Jan 25, 1:00 PM)100% (Jan 17, 7:00 PM)30.48 "Hg (Jan 17, 7:00 PM)
Low30 °F (Jan 21, 3:00 AM)62% (Jan 16, 3:00 PM)29.46 "Hg (Jan 18, 1:00 AM)
Average45 °F92%30.20 "Hg
* Reported Jan 16 1:00 PM — Jan 31 1:00 PM, Vancouver, Weather by CustomWeather, © 2014

Note: Actual official high and low records may vary slightly from our data, if they occured in-between our weather recording intervals... More about our weather records

Advertising

Vancouver weather history for previous 24 hours

 ConditionsComfort  
Time TempWeatherWind HumidityBarometerVisibility
1:00 PM
Jan 31
43 °FBroken clouds.6 mph93%30.23 "Hg10 mi
12:00 PM41 °FPartly sunny.5 mph100%30.26 "Hg8 mi
11:00 AM41 °FFog.3 mph100%30.28 "Hg1 mi
10:00 AM39 °FFog.3 mph100%30.28 "Hg2 mi
9:00 AM39 °FChilly.5 mph100%30.28 "Hg1 mi
8:00 AM39 °FFog.5 mph100%30.29 "Hg1 mi
7:00 AM39 °FFog.3 mph93%30.27 "Hg1 mi
6:00 AM39 °FFog.5 mph100%30.27 "Hg1 mi
5:00 AM39 °FFog.5 mph100%30.29 "Hg1 mi
4:00 AM39 °FFog.6 mph100%30.28 "Hg1 mi
3:00 AM41 °FFog.7 mph100%30.28 "Hg2 mi
2:00 AM41 °FFog.6 mph100%30.29 "Hg2 mi
1:46 AM41 °FFog.3 mph100%30.29 "Hg2 mi
1:00 AM41 °FFog.5 mph100%30.28 "Hg3 mi
12:00 AM41 °FFog.6 mph100%30.27 "Hg4 mi
11:00 PM
Jan 30
43 °FLow clouds.5 mph93%30.27 "Hg10 mi
10:00 PM43 °FLow clouds.5 mph93%30.26 "Hg10 mi
9:00 PM43 °FLow clouds.9 mph93%30.27 "Hg10 mi
8:00 PM41 °FLow clouds.12 mph100%30.27 "Hg8 mi
7:00 PM43 °FMostly cloudy.9 mph93%30.27 "Hg10 mi
6:00 PM41 °FPassing clouds.10 mph100%30.28 "Hg12 mi
5:54 PM41 °FMostly cloudy.7 mph100%30.28 "Hg15 mi
5:00 PM41 °FQuite cool.5 mph100%30.29 "Hg1 mi
4:00 PM39 °FFog.3 mph100%30.28 "Hg0 mi
3:00 PM41 °FFog.5 mph93%30.29 "Hg0 mi
2:00 PM43 °FBroken clouds.7 mph93%30.30 "Hg30 mi
Weather by CustomWeather, © 2014

See weather overviewHow to use our weather pages